Time,TemperatureF,DewpointF,PressureIn,WindDirection,WindDirectionDegrees,WindSpeedMPH,WindSpeedGustMPH,Humidity,HourlyPrecipIn,Conditions,Clouds,dailyrainin,SoftwareType,DateUTC
2013-04-11 00:02:00,47.0,46.0,30.14,WNW,286,1.0,4.0,95,0.00,,,0.00,,2013-04-11 07:02:00,
2013-04-11 00:12:00,47.0,46.0,30.14,WNW,286,1.0,4.0,95,0.00,,,0.00,,2013-04-11 07:12:00,
2013-04-11 00:21:00,47.0,46.0,30.13,WNW,295,0.0,5.0,95,0.00,,,0.00,,2013-04-11 07:21:00,
2013-04-11 00:32:00,46.0,45.0,30.13,WSW,237,0.0,4.0,95,0.00,,,0.00,,2013-04-11 07:32:00,
2013-04-11 00:42:00,46.0,45.0,30.13,WSW,237,0.0,4.0,95,0.00,,,0.00,,2013-04-11 07:42:00,
2013-04-11 00:52:00,46.0,45.0,30.12,WNW,296,0.0,5.0,95,0.00,,,0.00,,2013-04-11 07:52:00,
2013-04-11 01:02:00,46.0,45.0,30.13,West,266,4.0,9.0,95,0.00,,,0.00,,2013-04-11 08:02:00,
2013-04-11 01:11:00,46.0,45.0,30.13,West,266,4.0,9.0,95,0.00,,,0.00,,2013-04-11 08:11:00,
2013-04-11 01:22:00,46.0,45.0,30.12,NW,312,3.0,9.0,95,0.00,,,0.00,,2013-04-11 08:22:00,
2013-04-11 01:32:00,46.0,44.0,30.11,West,260,4.0,9.0,94,0.00,,,0.00,,2013-04-11 08:32:00,
2013-04-11 01:41:00,46.0,44.0,30.11,West,260,4.0,9.0,94,0.00,,,0.00,,2013-04-11 08:41:00,
2013-04-11 01:51:00,45.0,43.0,30.11,WNW,293,0.0,7.0,94,0.00,,,0.00,,2013-04-11 08:51:00,
2013-04-11 02:01:00,45.0,44.0,30.11,WNW,287,1.0,5.0,95,0.00,,,0.00,,2013-04-11 09:01:00,
2013-04-11 02:11:00,45.0,44.0,30.11,WNW,287,1.0,5.0,95,0.00,,,0.00,,2013-04-11 09:11:00,
2013-04-11 02:22:00,45.0,44.0,30.11,WNW,283,3.0,6.0,95,0.00,,,0.00,,2013-04-11 09:22:00,
2013-04-11 02:32:00,44.0,43.0,30.10,West,281,0.0,5.0,95,0.00,,,0.00,,2013-04-11 09:32:00,
2013-04-11 02:42:00,44.0,43.0,30.10,West,281,0.0,5.0,95,0.00,,,0.00,,2013-04-11 09:42:00,
2013-04-11 02:52:00,44.0,43.0,30.10,WNW,292,1.0,5.0,95,0.00,,,0.00,,2013-04-11 09:52:00,
2013-04-11 03:02:00,44.0,43.0,30.10,WNW,303,0.0,3.0,95,0.00,,,0.00,,2013-04-11 10:02:00,
2013-04-11 03:12:00,44.0,43.0,30.09,WNW,293,2.0,6.0,96,0.00,,,0.00,,2013-04-11 10:12:00,
2013-04-11 03:22:00,44.0,43.0,30.09,WNW,293,2.0,6.0,96,0.00,,,0.00,,2013-04-11 10:22:00,
2013-04-11 03:32:00,44.0,43.0,30.08,WSW,248,0.0,7.0,95,0.00,,,0.00,,2013-04-11 10:32:00,
2013-04-11 03:41:00,44.0,43.0,30.08,WSW,248,0.0,7.0,95,0.00,,,0.00,,2013-04-11 10:41:00,
2013-04-11 03:52:00,43.0,42.0,30.08,WNW,297,2.0,13.0,95,0.00,,,0.00,,2013-04-11 10:52:00,
2013-04-11 04:02:00,43.0,42.0,30.08,WNW,297,2.0,13.0,95,0.00,,,0.00,,2013-04-11 11:02:00,
2013-04-11 04:11:00,43.0,42.0,30.07,WNW,301,1.0,7.0,95,0.00,,,0.00,,2013-04-11 11:11:00,
2013-04-11 04:22:00,43.0,42.0,30.07,WNW,295,0.0,5.0,95,0.00,,,0.00,,2013-04-11 11:22:00,
2013-04-11 04:32:00,43.0,42.0,30.08,WNW,299,2.0,5.0,95,0.00,,,0.00,,2013-04-11 11:32:00,
2013-04-11 04:42:00,43.0,42.0,30.08,WNW,284,0.0,4.0,96,0.00,,,0.00,,2013-04-11 11:42:00,
2013-04-11 04:52:00,43.0,42.0,30.08,WNW,284,0.0,4.0,96,0.00,,,0.00,,2013-04-11 11:52:00,
2013-04-11 05:02:00,42.0,41.0,30.07,WNW,284,1.0,3.0,95,0.00,,,0.00,,2013-04-11 12:02:00,
2013-04-11 05:12:00,42.0,41.0,30.07,WNW,284,1.0,3.0,95,0.00,,,0.00,,2013-04-11 12:12:00,
2013-04-11 05:22:00,42.0,41.0,30.06,West,271,0.0,2.0,95,0.00,,,0.00,,2013-04-11 12:22:00,
2013-04-11 05:32:00,41.0,40.0,30.06,West,271,0.0,0.0,95,0.00,,,0.00,,2013-04-11 12:32:00,
2013-04-11 05:42:00,41.0,40.0,30.06,West,271,0.0,0.0,95,0.00,,,0.00,,2013-04-11 12:42:00,
2013-04-11 05:52:00,40.0,39.0,30.05,West,271,0.0,2.0,95,0.00,,,0.00,,2013-04-11 12:52:00,
2013-04-11 06:02:00,40.0,39.0,30.05,West,271,0.0,0.0,95,0.00,,,0.00,,2013-04-11 13:02:00,
2013-04-11 06:12:00,40.0,39.0,30.06,WNW,282,0.0,4.0,95,0.00,,,0.00,,2013-04-11 13:12:00,
2013-04-11 06:22:00,40.0,39.0,30.06,WNW,282,0.0,4.0,95,0.00,,,0.00,,2013-04-11 13:22:00,
2013-04-11 06:32:00,41.0,40.0,30.06,WNW,282,1.0,3.0,96,0.00,,,0.00,,2013-04-11 13:32:00,
2013-04-11 06:42:00,41.0,40.0,30.06,WNW,282,1.0,3.0,96,0.00,,,0.00,,2013-04-11 13:42:00,
2013-04-11 06:52:00,42.0,41.0,30.07,West,264,2.0,7.0,96,0.00,,,0.00,,2013-04-11 13:52:00,
2013-04-11 07:02:00,42.0,41.0,30.06,WNW,299,2.0,6.0,96,0.00,,,0.00,,2013-04-11 14:02:00,
2013-04-11 07:12:00,42.0,41.0,30.06,WNW,291,0.0,8.0,95,0.00,,,0.00,,2013-04-11 14:12:00,
2013-04-11 07:21:00,42.0,41.0,30.06,WNW,291,0.0,8.0,95,0.00,,,0.00,,2013-04-11 14:21:00,
2013-04-11 07:32:00,41.0,40.0,30.07,WNW,293,0.0,2.0,95,0.00,,,0.00,,2013-04-11 14:32:00,
2013-04-11 07:41:00,41.0,40.0,30.07,WNW,293,0.0,2.0,95,0.00,,,0.00,,2013-04-11 14:41:00,
2013-04-11 07:52:00,41.0,40.0,30.07,West,272,0.0,3.0,95,0.00,,,0.00,,2013-04-11 14:52:00,
2013-04-11 08:02:00,41.0,40.0,30.07,West,272,0.0,1.0,96,0.00,,,0.00,,2013-04-11 15:02:00,
2013-04-11 08:12:00,41.0,40.0,30.07,West,272,0.0,0.0,95,0.00,,,0.00,,2013-04-11 15:12:00,
2013-04-11 08:21:00,41.0,40.0,30.07,West,272,0.0,0.0,95,0.00,,,0.00,,2013-04-11 15:21:00,
2013-04-11 08:32:00,41.0,40.0,30.07,West,272,0.0,0.0,95,0.00,,,0.00,,2013-04-11 15:32:00,
2013-04-11 08:42:00,41.0,40.0,30.07,West,272,0.0,0.0,95,0.00,,,0.00,,2013-04-11 15:42:00,
2013-04-11 08:53:00,41.0,40.0,30.07,West,272,0.0,0.0,96,0.00,,,0.00,,2013-04-11 15:53:00,
2013-04-11 09:02:00,41.0,40.0,30.07,West,271,0.0,0.0,96,0.00,,,0.00,,2013-04-11 16:02:00,
2013-04-11 09:12:00,41.0,40.0,30.07,West,271,0.0,0.0,96,0.00,,,0.00,,2013-04-11 16:12:00,
2013-04-11 09:22:00,42.0,41.0,30.06,West,272,0.0,1.0,96,0.00,,,0.00,,2013-04-11 16:22:00,
2013-04-11 09:32:00,44.0,42.0,30.07,West,280,0.0,4.0,91,0.00,,,0.00,,2013-04-11 16:32:00,
2013-04-11 09:41:00,46.0,42.0,30.07,West,274,0.0,3.0,85,0.00,,,0.00,,2013-04-11 16:41:00,
2013-04-11 09:52:00,46.0,42.0,30.07,West,274,0.0,3.0,85,0.00,,,0.00,,2013-04-11 16:52:00,
2013-04-11 10:02:00,48.0,42.0,30.07,NW,310,0.0,7.0,80,0.00,,,0.00,,2013-04-11 17:02:00,
2013-04-11 10:12:00,48.0,42.0,30.07,NW,310,0.0,7.0,80,0.00,,,0.00,,2013-04-11 17:12:00,
2013-04-11 10:22:00,49.0,43.0,30.07,NNE,20,0.0,5.0,80,0.00,,,0.00,,2013-04-11 17:22:00,
2013-04-11 10:32:00,48.0,42.0,30.08,WNW,288,1.0,8.0,81,0.00,,,0.00,,2013-04-11 17:32:00,
2013-04-11 10:42:00,48.0,42.0,30.08,WNW,288,1.0,8.0,81,0.00,,,0.00,,2013-04-11 17:42:00,
2013-04-11 10:52:00,49.0,43.0,30.07,NE,45,1.0,4.0,79,0.00,,,0.00,,2013-04-11 17:52:00,
2013-04-11 11:02:00,49.0,41.0,30.06,WNW,301,3.0,8.0,74,0.00,,,0.00,,2013-04-11 18:02:00,
2013-04-11 11:12:00,49.0,41.0,30.06,WNW,301,3.0,8.0,74,0.00,,,0.00,,2013-04-11 18:12:00,
2013-04-11 11:22:00,51.0,44.0,30.05,NNW,330,1.0,6.0,76,0.00,,,0.00,,2013-04-11 18:22:00,
2013-04-11 11:32:00,52.0,45.0,30.05,WNW,294,4.0,10.0,78,0.00,,,0.00,,2013-04-11 18:32:00,
2013-04-11 11:42:00,52.0,45.0,30.05,WNW,294,4.0,10.0,78,0.00,,,0.00,,2013-04-11 18:42:00,
2013-04-11 11:52:00,51.0,45.0,30.05,WNW,285,3.0,14.0,79,0.00,,,0.00,,2013-04-11 18:52:00,
2013-04-11 12:03:00,50.0,44.0,30.05,West,273,3.0,11.0,80,0.00,,,0.00,,2013-04-11 19:03:00,
2013-04-11 12:13:00,50.0,44.0,30.05,West,273,3.0,11.0,80,0.00,,,0.00,,2013-04-11 19:13:00,
2013-04-11 12:21:00,50.0,44.0,30.05,WNW,284,5.0,15.0,80,0.00,,,0.00,,2013-04-11 19:21:00,
2013-04-11 12:32:00,50.0,43.0,30.05,SSW,209,5.0,13.0,77,0.00,,,0.00,,2013-04-11 19:32:00,
2013-04-11 12:42:00,50.0,43.0,30.05,SSW,209,5.0,13.0,77,0.00,,,0.00,,2013-04-11 19:42:00,
2013-04-11 12:52:00,52.0,45.0,30.04,WNW,302,1.0,11.0,76,0.00,,,0.00,,2013-04-11 19:52:00,
2013-04-11 13:02:00,53.0,43.0,30.04,WNW,297,1.0,7.0,70,0.00,,,0.00,,2013-04-11 20:02:00,
2013-04-11 13:12:00,53.0,43.0,30.04,WNW,297,1.0,7.0,70,0.00,,,0.00,,2013-04-11 20:12:00,
2013-04-11 13:21:00,54.0,44.0,30.03,West,274,5.0,13.0,69,0.00,,,0.00,,2013-04-11 20:21:00,
2013-04-11 13:33:00,55.0,46.0,30.03,NNW,328,2.0,14.0,72,0.00,,,0.00,,2013-04-11 20:33:00,
2013-04-11 13:42:00,55.0,46.0,30.03,NNW,328,2.0,14.0,72,0.00,,,0.00,,2013-04-11 20:42:00,
2013-04-11 13:52:00,56.0,44.0,30.02,West,266,3.0,12.0,65,0.00,,,0.00,,2013-04-11 20:52:00,
2013-04-11 14:02:00,55.0,44.0,30.02,WNW,282,3.0,12.0,67,0.00,,,0.00,,2013-04-11 21:02:00,
2013-04-11 14:12:00,55.0,44.0,30.02,WNW,282,3.0,12.0,67,0.00,,,0.00,,2013-04-11 21:12:00,
2013-04-11 14:22:00,56.0,46.0,30.01,NW,309,3.0,13.0,70,0.00,,,0.00,,2013-04-11 21:22:00,
2013-04-11 14:32:00,56.0,44.0,30.01,West,267,4.0,12.0,65,0.00,,,0.00,,2013-04-11 21:32:00,
2013-04-11 14:42:00,56.0,44.0,30.01,West,267,4.0,12.0,65,0.00,,,0.00,,2013-04-11 21:42:00,
2013-04-11 15:02:00,55.0,44.0,29.99,WNW,287,5.0,12.0,67,0.00,,,0.00,,2013-04-11 22:02:00,
2013-04-11 15:13:00,55.0,44.0,29.99,WNW,287,5.0,12.0,67,0.00,,,0.00,,2013-04-11 22:13:00,
2013-04-11 15:22:00,55.0,43.0,29.99,SW,214,3.0,11.0,64,0.00,,,0.00,,2013-04-11 22:22:00,
2013-04-11 15:32:00,55.0,43.0,30.00,West,275,6.0,12.0,64,0.00,,,0.00,,2013-04-11 22:32:00,
2013-04-11 15:43:00,55.0,43.0,30.00,West,275,6.0,12.0,64,0.00,,,0.00,,2013-04-11 22:43:00,
2013-04-11 15:52:00,55.0,43.0,29.98,WNW,301,3.0,12.0,64,0.00,,,0.00,,2013-04-11 22:52:00,
2013-04-11 16:03:00,56.0,44.0,29.98,WNW,291,6.0,12.0,63,0.00,,,0.00,,2013-04-11 23:03:00,
2013-04-11 16:12:00,56.0,44.0,29.98,WNW,291,6.0,12.0,63,0.00,,,0.00,,2013-04-11 23:12:00,
2013-04-11 16:22:00,56.0,43.0,29.97,WNW,293,4.0,11.0,62,0.00,,,0.00,,2013-04-11 23:22:00,
2013-04-11 16:32:00,56.0,44.0,29.97,WNW,286,3.0,11.0,63,0.00,,,0.00,,2013-04-11 23:32:00,
2013-04-11 16:42:00,56.0,44.0,29.97,WNW,286,3.0,11.0,63,0.00,,,0.00,,2013-04-11 23:42:00,
2013-04-11 16:52:00,56.0,42.0,29.96,South,174,5.0,14.0,60,0.00,,,0.00,,2013-04-11 23:52:00,
2013-04-11 17:02:00,55.0,42.0,29.95,West,277,2.0,13.0,61,0.00,,,0.00,,2013-04-12 00:02:00,
2013-04-11 17:21:00,55.0,42.0,29.95,WNW,285,3.0,11.0,62,0.00,,,0.00,,2013-04-12 00:21:00,
2013-04-11 17:32:00,54.0,43.0,29.95,SW,233,3.0,12.0,66,0.00,,,0.00,,2013-04-12 00:32:00,
2013-04-11 17:52:00,54.0,42.0,29.94,WNW,289,6.0,14.0,63,0.00,,,0.00,,2013-04-12 00:52:00,
2013-04-11 18:02:00,54.0,43.0,29.94,NW,310,3.0,9.0,65,0.00,,,0.00,,2013-04-12 01:02:00,
2013-04-11 18:12:00,54.0,43.0,29.94,NW,310,3.0,9.0,65,0.00,,,0.00,,2013-04-12 01:12:00,
2013-04-11 18:22:00,54.0,43.0,29.94,WNW,290,3.0,8.0,65,0.00,,,0.00,,2013-04-12 01:22:00,
2013-04-11 18:32:00,54.0,42.0,29.93,SSW,206,1.0,5.0,63,0.00,,,0.00,,2013-04-12 01:32:00,
2013-04-11 18:42:00,54.0,42.0,29.93,SSW,206,1.0,5.0,63,0.00,,,0.00,,2013-04-12 01:42:00,
2013-04-11 18:52:00,54.0,43.0,29.93,WNW,293,1.0,6.0,67,0.00,,,0.00,,2013-04-12 01:52:00,
2013-04-11 19:02:00,53.0,43.0,29.93,WNW,285,1.0,4.0,69,0.00,,,0.00,,2013-04-12 02:02:00,
2013-04-11 19:12:00,53.0,43.0,29.93,WNW,285,1.0,4.0,69,0.00,,,0.00,,2013-04-12 02:12:00,
2013-04-11 19:22:00,52.0,43.0,29.93,WNW,289,1.0,5.0,72,0.00,,,0.00,,2013-04-12 02:22:00,
2013-04-11 19:32:00,50.0,43.0,29.92,West,262,0.0,4.0,77,0.00,,,0.00,,2013-04-12 02:32:00,
2013-04-11 19:42:00,50.0,43.0,29.92,West,262,0.0,4.0,77,0.00,,,0.00,,2013-04-12 02:42:00,
2013-04-11 19:52:00,49.0,44.0,29.91,West,262,0.0,2.0,82,0.00,,,0.00,,2013-04-12 02:52:00,
2013-04-11 20:02:00,48.0,43.0,29.92,West,262,1.0,3.0,83,0.00,,,0.00,,2013-04-12 03:02:00,
2013-04-11 20:12:00,48.0,43.0,29.92,West,262,1.0,3.0,83,0.00,,,0.00,,2013-04-12 03:12:00,
2013-04-11 20:21:00,47.0,43.0,29.92,WNW,288,0.0,3.0,85,0.00,,,0.00,,2013-04-12 03:21:00,
2013-04-11 20:33:00,46.0,42.0,29.91,WNW,287,0.0,3.0,85,0.00,,,0.00,,2013-04-12 03:33:00,
2013-04-11 20:43:00,46.0,42.0,29.91,WNW,287,0.0,3.0,85,0.00,,,0.00,,2013-04-12 03:43:00,
2013-04-11 20:52:00,45.0,42.0,29.92,WNW,287,0.0,2.0,88,0.00,,,0.00,,2013-04-12 03:52:00,
2013-04-11 21:02:00,45.0,42.0,29.92,WNW,287,0.0,1.0,88,0.00,,,0.00,,2013-04-12 04:02:00,
2013-04-11 21:13:00,45.0,42.0,29.92,WNW,287,0.0,1.0,88,0.00,,,0.00,,2013-04-12 04:13:00,
2013-04-11 21:22:00,44.0,41.0,29.92,WNW,288,0.0,1.0,89,0.00,,,0.00,,2013-04-12 04:22:00,
2013-04-11 21:33:00,43.0,40.0,29.92,WNW,288,0.0,0.0,90,0.00,,,0.00,,2013-04-12 04:33:00,
2013-04-11 21:43:00,43.0,40.0,29.92,WNW,288,0.0,0.0,90,0.00,,,0.00,,2013-04-12 04:43:00,
2013-04-11 21:52:00,43.0,41.0,29.93,WNW,288,0.0,2.0,92,0.00,,,0.00,,2013-04-12 04:52:00,
2013-04-11 22:12:00,44.0,41.0,29.94,NW,304,0.0,2.0,88,0.00,,,0.00,,2013-04-12 05:12:00,
2013-04-11 22:22:00,44.0,41.0,29.94,WNW,283,0.0,3.0,90,0.00,,,0.00,,2013-04-12 05:22:00,
2013-04-11 22:32:00,43.0,41.0,29.94,West,262,0.0,2.0,91,0.00,,,0.00,,2013-04-12 05:32:00,
2013-04-11 22:42:00,43.0,41.0,29.94,West,262,0.0,2.0,91,0.00,,,0.00,,2013-04-12 05:42:00,
2013-04-11 22:52:00,42.0,40.0,29.94,West,262,0.0,2.0,91,0.00,,,0.00,,2013-04-12 05:52:00,
2013-04-11 23:02:00,41.0,39.0,29.93,West,262,0.0,2.0,92,0.00,,,0.00,,2013-04-12 06:02:00,
2013-04-11 23:12:00,41.0,39.0,29.93,West,262,0.0,2.0,92,0.00,,,0.00,,2013-04-12 06:12:00,
2013-04-11 23:22:00,41.0,39.0,29.94,West,262,1.0,4.0,93,0.00,,,0.00,,2013-04-12 06:22:00,
2013-04-11 23:32:00,41.0,39.0,29.94,West,262,0.0,3.0,94,0.00,,,0.00,,2013-04-12 06:32:00,
2013-04-11 23:42:00,41.0,39.0,29.94,West,262,0.0,3.0,94,0.00,,,0.00,,2013-04-12 06:42:00,
2013-04-11 23:52:00,41.0,39.0,29.94,West,262,0.0,3.0,94,0.00,,,0.00,,2013-04-12 06:52:00,